This is the latest recevied weather packets stored in our database for station/object N7WSS. If no packets are shown the sender has not sent any weather packets the latest 10 day(s).
| Time | Temp. | Humidity | Pressure | Rain* | Wind** | Luminosity | Snow |
|---|---|---|---|---|---|---|---|
| 1788644495 | 36.11° C | 33% | 1012.6 hPa | 0 mm | - | - | - |
| 1788644190 | 35.56° C | 33% | 1012.5 hPa | 0 mm | - | - | - |
| 1788643885 | 35.56° C | 33% | 1012.6 hPa | 0 mm | - | - | - |
| 1788643581 | 35.56° C | 33% | 1012.5 hPa | 0 mm | - | - | - |
| 1788643280 | 36.11° C | 33% | 1012.7 hPa | 0 mm | - | - | - |
| 1788642975 | 36.67° C | 32% | 1012.7 hPa | 0 mm | - | - | - |
| 1788642671 | 36.11° C | 32% | 1013 hPa | 0 mm | - | - | - |
| 1788642368 | 36.11° C | 33% | 1012.9 hPa | 0 mm | - | - | - |
| 1788642067 | 35.56° C | 32% | 1013 hPa | 0 mm | - | - | - |
| 1788641767 | 36.67° C | 32% | 1013.1 hPa | 0 mm | - | - | - |
| 1788641466 | 36.11° C | 32% | 1013.2 hPa | 0 mm | - | - | - |
| 1788641161 | 36.11° C | 32% | 1012.8 hPa | 0 mm | - | - | - |
| 1788640856 | 35.56° C | 33% | 1013.3 hPa | 0 mm | - | - | - |
| 1788640556 | 35.56° C | 33% | 1013.6 hPa | 0 mm | - | - | - |
| 1788640251 | 35.56° C | 33% | 1013.3 hPa | 0 mm | - | - | - |
| 1788639946 | 35.56° C | 34% | 1013.6 hPa | 0 mm | - | - | - |
| 1788639642 | 35.56° C | 33% | 1013.5 hPa | 0 mm | - | - | - |
| 1788639338 | 35° C | 34% | 1013.5 hPa | 0 mm | - | - | - |
| 1788639037 | 35.56° C | 34% | 1013.8 hPa | 0 mm | - | - | - |
| 1788638732 | 35° C | 34% | 1013.7 hPa | 0 mm | - | - | - |
| 1788638432 | 34.44° C | 35% | 1013.8 hPa | 0 mm | - | - | - |
| 1788638126 | 35° C | 35% | 1014 hPa | 0 mm | - | - | - |
| 1788637822 | 33.89° C | 37% | 1013.9 hPa | 0 mm | - | - | - |
| 1788637522 | 35.56° C | 35% | 1013.9 hPa | 0 mm | - | - | - |
| 1788637222 | 35° C | 35% | 1013.9 hPa | 0 mm | - | - | - |
* Rain latest hour (hover to see other rain measurements)
** Current wind speed in m/s (hover to see current wind gust speed)